{"data":{"norad_id":57291,"epoch":"2026-09-20T22:00:03.000096Z","epoch_age_seconds":88288,"freshness":"FRESH","line1":"1 57291U 23096B   26263.91670139  .00657336  00000+0  56072-2 0  9990","line2":"2 57291  42.9993 192.3462 0001668 267.5147 326.1869 15.66701247  5854","mean_motion":15.66701247,"eccentricity":0.0001668,"inclination_deg":42.9993,"raan_deg":192.3462,"arg_perigee_deg":267.5147,"mean_anomaly_deg":326.1869,"bstar":0.0056072,"rev_number":585,"period_min":91.912864865423,"perigee_km":367.22511175884,"apogee_km":369.47573996411,"semimajor_km":6746.4874258615,"source":"CELESTRAK","updated_at":"2026-09-21T09:00:33.594346Z"}}